Miscellaneous Local Product
Issued by NWS North Platte, NE

Home | Current Version | Previous Version | Graphics & Text | Print | Product List | Glossary On
Versions: 1 2 3 4 5 6 7 8 9 10 11 12 13 14 15 16 17 18 19 20 21 22 23 24 25 26 27 28 29 30 31 32 33 34 35 36 37 38 39 40 41 42 43 44 45 46 47 48 49 50
639
AXUS43 KLBF 031210
MISLBF


WESTERN AND NORTH CENTRAL NEBRASKA HOURLY WEATHER ROUNDUP
NATIONAL WEATHER SERVICE NORTH PLATTE NE
600 AM CST SAT DEC 03 2016

NOTE: "FAIR" INDICATES FEW OR NO CLOUDS BELOW 12,000 FEET WITH NO
SIGNIFICANT WEATHER AND/OR OBSTRUCTIONS TO VISIBILITY.

NOTE: STATIONS NOT REPORTING VARIABLES SUCH AS SKY/WEATHER OR
PRESSURE ARE PROVIDED BY RAWS AND APRS NETWORKS AND ARE NOT UNDER
NATIONAL WEATHER SERVICE QUALITY CONTROL.

...OBSERVATIONS IN AND NEAR THE EASTERN PANHANDLE OF NEBRASKA...

CITY           SKY/WX    TMP DP  RH WIND       PRES   REMARKS
PINE RIDGE     CLOUDY    31  24  75 S15       30.00F WCI  20
CHADRON        CLEAR     27  20  75 SW13      30.00F WCI  16
ALLIANCE       CLOUDY    25  20  81 S9        30.03F WCI  15
SIDNEY         CLEAR     23  18  81 SW12      30.06F WCI  12
CRESCENT LAKE    N/A     30  22  73 S9          N/A  WCI  22
$$

...OBSERVATIONS IN NORTHERN NEBRASKA AND FAR SOUTHERN SOUTH DAKOTA...

CITY           SKY/WX    TMP DP  RH WIND       PRES   REMARKS
WINNER         CLOUDY    32  24  72 SW13      30.11F WCI  22
VALENTINE      CLOUDY    31  25  78 S12       30.09F WCI  22
THEDFORD       CLOUDY    33  26  72 S7        30.13F WCI  27
AINSWORTH      CLOUDY    32  27  81 S8        30.12F WCI  24
O`NEILL        CLOUDY    26  24  92 S6        30.17F WCI  20
ORD            CLOUDY    26  22  84 CALM      30.19F
BROKEN BOW     CLOUDY    31  27  85 S6        30.17F WCI  25
VALENTINE NWR    N/A     29  25  84 S7          N/A  WCI  22
BUTTE            N/A     25  23  91 S5          N/A  WCI  19
HALSEY           N/A     31  24  73 S6          N/A  WCI  25
CHAMBERS         N/A     25  22  88 CALM        N/A
EWING            N/A     23  21  93 CALM        N/A
$$

...OBSERVATIONS IN SOUTHWEST NEBRASKA AND FAR NORTHEAST COLORADO...

CITY           SKY/WX    TMP DP  RH WIND       PRES   REMARKS
WRAY           FAIR      27  23  86 SW3       30.11
HOLYOKE        FAIR      25  19  80 SW8       30.11F WCI  16
IMPERIAL       CLOUDY    28  23  81 S8        30.13F WCI  20
OGALLALA       CLOUDY    32  26  79 S5        30.12F WCI  27
NORTH PLATTE   CLOUDY    30  24  78 CALM      30.15F
MCCOOK         CLOUDY    26  21  81 CALM      30.17F
LEXINGTON      CLOUDY    31  26  80 S7        30.18F WCI  24
STAPLETON        N/A     29  25  84 CALM        N/A
GOTHENBURG       N/A     31  25  78 SE3         N/A
CALLAWAY         N/A     28  26  90 S8          N/A  WCI  20
$$

...OBSERVATIONS IN CENTRAL LINCOLN COUNTY AREA...

CITY           SKY/WX    TMP DP  RH WIND       PRES   REMARKS
N.P. AIRPORT   CLOUDY    30  24  78 CALM      30.15F
N.P. DOWNTOWN    N/A     31  25  79 CALM        N/A
N.P. HILLCREST   N/A     31  26  80 CALM        N/A
$$

...SOME OBSERVATIONS FROM AROUND THE REGION...

CITY           SKY/WX    TMP DP  RH WIND       PRES   REMARKS
LARAMIE        CLOUDY    13   5  70 SW23G29   29.95F WCI  -6
CHEYENNE       CLOUDY    16   7  67 W14       29.97F WCI   2
DENVER         CLOUDY    18  13  80 SW7       30.01F WCI   9
AKRON          CLEAR     24  17  74 S10       30.06F WCI  14
SCOTTSBLUFF    CLEAR     20  16  84 CALM      30.04F
RAPID CITY     CLEAR     21  16  81 VRB3      29.93F
BISMARCK       MOCLDY    23  22  96 SE13      30.05F WCI  11
PIERRE         CLOUDY    22  20  92 SE9       30.08F WCI  12
SIOUX FALLS    PTCLDY    28  26  92 SE6       30.25F WCI  22
OMAHA          FOG       23  19  85 CALM      30.31F VSB 1/4
GRAND ISLAND   CLOUDY    28  26  92 S6        30.24S WCI  22
KANSAS CITY    PTCLDY    30  25  81 NE8       30.29F WCI  22
WICHITA        LGT RAIN  42  28  57 E7        30.20F
OKLAHOMA CITY  LGT RAIN  46  44  93 NE6       30.18S
DALLAS         LGT RAIN  49  44  83 NE17      30.08F
AMARILLO       CLOUDY    33  33 100 N12       30.11F FOG     WCI  24
DODGE CITY     CLOUDY    32  32 100 N5        30.18F FOG     WCI  27
HAYS           CLOUDY    34  26  72 CALM      30.23F
GOODLAND       CLOUDY    24  15  68 S8        30.12F WCI  15
$$




USA.gov is the U.S. government's official web portal to all federal, state and local government web resources and services.